This is the latest recevied weather packets stored in our database for station/object KQ4OSL. If no packets are shown the sender has not sent any weather packets the latest 10 day(s).
| Time | Temp. | Humidity | Pressure | Rain* | Wind** | Luminosity | Snow |
|---|---|---|---|---|---|---|---|
| 1787638705 | 18.89° C | 99% | 1018.3 hPa | 0 mm | - | 0 W/m² | - |
| 1787638401 | 18.89° C | 99% | 1018.3 hPa | 0 mm | - | 0 W/m² | - |
| 1787638096 | 18.89° C | 98% | 1018.5 hPa | 0 mm | - | 0 W/m² | - |
| 1787637792 | 18.89° C | 98% | 1018.4 hPa | 0 mm | - | 0 W/m² | - |
| 1787637490 | 19.44° C | 98% | 1018.6 hPa | 0 mm | - | 0 W/m² | - |
| 1787637187 | 19.44° C | 98% | 1018.4 hPa | 0 mm | - | 0 W/m² | - |
| 1787636886 | 18.89° C | 98% | 1018.5 hPa | 0 mm | - | 0 W/m² | - |
| 1787636581 | 19.44° C | 98% | 1018.7 hPa | 0 mm | - | 0 W/m² | - |
| 1787636280 | 19.44° C | 97% | 1018.7 hPa | 0 mm | - | 0 W/m² | - |
| 1787635975 | 19.44° C | 97% | 1018.7 hPa | 0 mm | - | 0 W/m² | - |
| 1787635676 | 20° C | 96% | 1018.8 hPa | 0 mm | - | 0 W/m² | - |
| 1787635373 | 20° C | 95% | 1018.7 hPa | 0 mm | - | 0 W/m² | - |
| 1787635072 | 20.56° C | 93% | 1018.7 hPa | 0 mm | - | 0 W/m² | - |
| 1787634768 | 20.56° C | 91% | 1019 hPa | 0 mm | - | 0 W/m² | - |
| 1787634463 | 20° C | 93% | 1019 hPa | 0 mm | - | 0 W/m² | - |
| 1787634158 | 20° C | 97% | 1019.1 hPa | 0 mm | - | 0 W/m² | - |
| 1787633854 | 19.44° C | 98% | 1019.2 hPa | 0 mm | - | 0 W/m² | - |
| 1787633551 | 19.44° C | 97% | 1019.1 hPa | 0 mm | - | 0 W/m² | - |
| 1787633246 | 20° C | 97% | 1019.1 hPa | 0 mm | - | 0 W/m² | - |
| 1787632942 | 20° C | 97% | 1019.1 hPa | 0 mm | - | 0 W/m² | - |
| 1787632638 | 20° C | 97% | 1019.1 hPa | 0 mm | - | 0 W/m² | - |
| 1787632333 | 20° C | 97% | 1019.2 hPa | 0 mm | - | 0 W/m² | - |
| 1787632032 | 20° C | 97% | 1019.1 hPa | 0 mm | - | 0 W/m² | - |
| 1787631729 | 19.44° C | 97% | 1019.1 hPa | 0 mm | - | 0 W/m² | - |
| 1787631425 | 19.44° C | 97% | 1019.3 hPa | 0 mm | - | 0 W/m² | - |
* Rain latest hour (hover to see other rain measurements)
** Current wind speed in m/s (hover to see current wind gust speed)